Location: Recife
(8.0585°S, 34.8848°W)
Time: 12:27:30
(UTC-03:00)

Transit 4A - Pass Details

Date: 14 April 2026
Orbit: 861 x 980 km, 66.8° (Epoch: 12 May)

Event Time Altitude Azimuth Distance (km) Brightness Sun altitude
Rises 00:23:46 0° 359° (N) 3,654 - -74.2°
Reaches altitude 10° 00:26:33 10° 7° (N) 2,703 - -73.5°
Maximum altitude 00:32:14 35° 71° (ENE) 1,493 - -72.1°
Drops below altitude 10° 00:37:48 10° 135° (SE) 2,659 - -70.7°
Sets 00:40:31 0° 144° (SE) 3,588 - -70.0°
